[[{"header":{"parameterUnit":"m.s-1","parameterCategory":1,"la1":30.2991,"la2":30.254,"lo1":-89.0895,"lo2":-89.0444,"dy":0.0017,"dx":0.0017,"nx":28,"ny":28,"refTime":"2024-05-31T21:00:00:Z","depth":0,"parameterNumber":2,"parameterNumberName":"U-component_of_WINDS"},"data":[0,0,0,0,0,0,0,0,0,0,0,0,0,0,0,0,0,0,0,0,0,0,0,0,0,0,0,0,0,0,0,0,0,0,0,0,0,0,0,0,0,0,0,0,0,0,0,0,0,0,0,0,0,0,0,0,0,0,0.2636,0.2638,0,0.2801,0.2803,0.2805,0.2797,0.2795,0.2793,0.279,0.2956,0.2962,0.2969,0,0,0,0,0,0,0,0,0,0,0,0,0,0.231,0.2316,0.2636,0.2638,0.264,0.2801,0.2803,0.2805,0.2798,0.2795,0.2792,0.2789,0.2954,0.2962,0.297,0,0,0,0,0,0,0,0,0,0,0,0,0,0.2461,0.2318,0.2636,0.2656,0.2659,0.28,0.2803,0.2806,0.2798,0.2795,0.2791,0.2788,0.2951,0.2961,0.2971,0.3101,0,0,0.3001,0.3005,0,0,0,0,0,0,0,0,0.2453,0.2473,0.2651,0.2655,0.2659,0.2775,0.2749,0.2905,0.2799,0.2745,0.279,0.2786,0.2898,0.2912,0.2951,0.3109,0.3116,0.3002,0.3008,0.3012,0.3015,0,0,0,0,0,0,0,0.2442,0.2466,0.2701,0.2653,0.2658,0.2655,0.2673,0.2778,0.2839,0.275,0.275,0.2769,0.29,0.2941,0.2955,0.3119,0.3001,0.301,0.3016,0.302,0.3389,0.3393,0,0,0,0,0,0,0.2428,0.2457,0.2696,0.2706,0.2545,0.2664,0.2683,0.2741,0.2838,0.285,0.2772,0.2768,0.2926,0.2943,0.296,0.3119,0.3012,0.3021,0.3027,0.3386,0.339,0.3395,0,0,0,0,0,0,0.2421,0.2449,0.2689,0.2582,0.2612,0.2673,0.2738,0.2746,0.2788,0.2855,0.2866,0.2804,0.2924,0.2947,0.3066,0.3124,0.3025,0.3034,0.3381,0.3387,0.3392,0.3437,0,0,0,0,0,0,0.2412,0.2447,0.2498,0.2583,0.2618,0.2794,0.2742,0.2752,0.2805,0.2802,0.2888,0.2898,0.2923,0.3051,0.3076,0.3136,0.3042,0.3376,0.3384,0.3391,0.3431,0.3444,0.3455,0,0,0,0,0,0.24,0.2504,0.2501,0.253,0.2684,0.2797,0.2817,0.2844,0.281,0.2862,0.2904,0.2896,0.3114,0.3064,0.3091,0.3155,0.3373,0.3382,0.339,0.3425,0.3441,0.3455,0,0,0,0,0,0,0.2425,0.2516,0.2513,0.2648,0.2715,0.2796,0.2862,0.2861,0.2938,0.2932,0.2961,0.298,0.31,0.3139,0.3082,0.3286,0.3238,0.3253,0.3256,0.3272,0.3283,0.3272,0.305,0,0,0,0,0,0.2446,0.2532,0.2606,0.2718,0.2752,0.2801,0.2851,0.2866,0.2936,0.2964,0.3016,0.3083,0.3166,0.3221,0.3302,0.3436,0.3453,0.3493,0.3505,0.3515,0.3527,0.3599,0.3617,0.3423,0.3423,0.3423,0,0,0.2491,0.2551,0.2604,0.2724,0.2778,0.2864,0.2825,0.2919,0.2983,0.2978,0.3095,0.3134,0.3211,0.3338,0.3396,0.3374,0.3584,0.3526,0.3533,0.3541,0.361,0.3628,0.3645,0.3429,0.3428,0.3427,0,0,0.2617,0.2672,0.277,0.2824,0.2906,0.2937,0.2961,0.3041,0.3068,0.3185,0.3183,0.3258,0.3402,0.3456,0.3502,0.3645,0.364,0.367,0.3734,0.3804,0.3819,0.3833,0.3883,0.39,0.3682,0.3683,0.3683,0,0.2663,0.2794,0.2821,0.2915,0.2967,0.2967,0.3066,0.3117,0.322,0.3255,0.3229,0.3408,0.346,0.3599,0.3633,0.3671,0.3697,0.3662,0.3815,0.3829,0.3842,0.389,0.3909,0.3686,0.3685,0.3685,0.3685,0,0.2845,0.2936,0.3005,0.3105,0.3165,0.3261,0.3301,0.3358,0.3367,0.34,0.3518,0.358,0.3672,0.3705,0.3715,0.3845,0.3829,0.3809,0.3762,0.3863,0.3909,0.3927,0.369,0.3689,0.3688,0.3687,0,0,0.2994,0.3105,0.313,0.3175,0.3263,0.3333,0.3428,0.3519,0.3566,0.3637,0.3716,0.3836,0.3817,0.3869,0.3885,0.3946,0.4054,0.3918,0.392,0.394,0.4198,0.4213,0.4234,0.405,0.4053,0.4056,0.4192,0,0.3128,0.3298,0.3323,0.3472,0.3555,0.3554,0.3636,0.3698,0.3732,0.3806,0.3842,0.3926,0.3896,0.3927,0.3987,0.4028,0.4106,0.4018,0.4122,0.4126,0.4104,0.4259,0.4275,0.4401,0.421,0.4213,0.4215,0,0.3309,0.3384,0.3541,0.3616,0.3652,0.3726,0.3809,0.3881,0.395,0.3969,0.4027,0.4034,0.413,0.4078,0.421,0.4149,0.4193,0.4219,0.4224,0.4235,0.4177,0.4274,0.4441,0.446,0.4244,0.4241,0.4239,0,0.3401,0.3541,0.3653,0.3691,0.3781,0.3832,0.3872,0.3938,0.399,0.4063,0.4097,0.4179,0.4224,0.4287,0.4315,0.4275,0.4444,0.4395,0.4462,0.4461,0.4499,0.4496,0.4676,0.4526,0.4526,0.4525,0.4525,0,0.3549,0.3645,0.3695,0.3764,0.387,0.3897,0.4001,0.4039,0.4097,0.4172,0.4175,0.4245,0.4278,0.4352,0.4375,0.4479,0.4499,0.4517,0.4522,0.4517,0.4515,0.4546,0.4538,0.4531,0.4529,0.4528,0.4528,0,0.367,0.3708,0.3829,0.3904,0.3925,0.4,0.4064,0.4129,0.4161,0.4255,0.4278,0.4328,0.4415,0.4449,0.4555,0.457,0.4691,0.4688,0.4668,0.4669,0.4734,0.4727,0.4941,0.4969,0.4801,0.4802,0.4804,0,0.3763,0.3836,0.3919,0.3969,0.4011,0.4092,0.4145,0.4173,0.4228,0.4311,0.4366,0.4453,0.4524,0.4663,0.4707,0.4788,0.4788,0.4857,0.48,0.4792,0.4788,0.4784,0.4791,0.4867,0.4869,0.4871,0.4872,0,0.3922,0.3936,0.4013,0.4096,0.4159,0.4225,0.429,0.4331,0.4368,0.4429,0.4519,0.4574,0.4682,0.4768,0.485,0.4889,0.4887,0.4889,0.4909,0.4905,0.489,0.4898,0.4697,0.4884,0.4883,0.4882,0.4881,0.4881,0.4032,0.4096,0.4164,0.4249,0.43,0.4359,0.4424,0.4464,0.4539,0.463,0.4641,0.4737,0.4801,0.4912,0.4954,0.5028,0.501,0.5038,0.5046,0.5052,0.5057,0.4877,0.5043,0.5043,0.5042,0.5042,0.5042,0,0.4191,0.4234,0.4311,0.4401,0.4467,0.4459,0.4529,0.4585,0.4669,0.473,0.48,0.4901,0.4984,0.5034,0.5116,0.5165,0.5166,0.5186,0.5183,0.5191,0.5069,0.5043,0.5184,0.5184,0.5184,0.5184,0.5184,0.5184,0.4281,0.439,0.4412,0.4545,0.4587,0.4681,0.4722,0.4776,0.4825,0.4938,0.5007,0.5039,0.5095,0.5181,0.5256,0.5268,0.5298,0.5319,0.533,0.5215,0.52,0.5186,0.5163,0.5326,0.5326,0.5447,0.5448,0.5449]},{"header":{"parameterUnit":"m.s-1","parameterCategory":1,"la1":30.2991,"la2":30.254,"lo1":-89.0895,"lo2":-89.0444,"dy":0.0017,"dx":0.0017,"nx":28,"ny":28,"refTime":"2024-05-31T21:00:00:Z","depth":0,"parameterNumber":3,"parameterNumberName":"V-component_of_WINDS"},"data":[0,0,0,0,0,0,0,0,0,0,0,0,0,0,0,0,0,0,0,0,0,0,0,0,0,0,0,0,0,0,0,0,0,0,0,0,0,0,0,0,0,0,0,0,0,0,0,0,0,0,0,0,0,0,0,0,0,0,3.6647,3.6647,0,3.657,3.6569,3.6568,3.6472,3.6471,3.6469,3.6468,3.6386,3.6385,3.6385,0,0,0,0,0,0,0,0,0,0,0,0,0,3.6706,3.6706,3.6647,3.6646,3.6646,3.657,3.6569,3.6568,3.6473,3.6471,3.6469,3.6467,3.6386,3.6385,3.6385,0,0,0,0,0,0,0,0,0,0,0,0,0,3.666,3.6706,3.6648,3.6589,3.6583,3.657,3.6569,3.6567,3.6473,3.6471,3.6468,3.6466,3.6387,3.6386,3.6384,3.6422,0,0,3.6381,3.638,0,0,0,0,0,0,0,0,3.6663,3.6658,3.6599,3.6593,3.6586,3.6528,3.6559,3.6519,3.6474,3.6515,3.6468,3.6465,3.6435,3.643,3.642,3.6418,3.6415,3.6381,3.638,3.638,3.6379,0,0,0,0,0,0,0,3.6666,3.6661,3.6617,3.6598,3.659,3.6564,3.6555,3.6551,3.6488,3.6511,3.6504,3.6496,3.6431,3.6422,3.6418,3.6414,3.6381,3.638,3.6379,3.6379,3.643,3.6432,0,0,0,0,0,0,3.6679,3.6664,3.6619,3.6614,3.662,3.6565,3.6555,3.6549,3.6488,3.6477,3.6498,3.6492,3.6425,3.6419,3.6414,3.6448,3.638,3.6378,3.6378,3.6428,3.643,3.6433,0,0,0,0,0,0,3.668,3.6676,3.6622,3.6637,3.6628,3.6566,3.6561,3.6549,3.6539,3.6478,3.6466,3.65,3.6423,3.6416,3.6419,3.6444,3.6378,3.6377,3.6425,3.6429,3.6431,3.6521,0,0,0,0,0,0,3.6683,3.6677,3.6693,3.6638,3.6628,3.6631,3.6563,3.6549,3.6537,3.6529,3.6477,3.6466,3.642,3.6421,3.6418,3.6441,3.6376,3.6423,3.6427,3.643,3.6515,3.6526,3.6536,0,0,0,0,0,3.6685,3.6722,3.6694,3.6689,3.6647,3.6633,3.6626,3.6573,3.654,3.6553,3.6513,3.6468,3.6443,3.6423,3.6418,3.6442,3.6421,3.6426,3.643,3.651,3.6524,3.6536,0,0,0,0,0,0,3.6782,3.6714,3.6682,3.6703,3.6674,3.6617,3.6632,3.6591,3.657,3.6563,3.6497,3.6486,3.6496,3.6469,3.6448,3.647,3.6425,3.6429,3.6487,3.65,3.651,3.6515,3.6375,0,0,0,0,0,3.6806,3.6802,3.6742,3.6766,3.6753,3.6695,3.6688,3.6649,3.6616,3.6603,3.6563,3.6532,3.6515,3.6507,3.649,3.6511,3.6495,3.6525,3.6535,3.6544,3.6547,3.6549,3.656,3.6448,3.6448,3.6448,0,0,3.6855,3.6817,3.6819,3.6785,3.6758,3.6751,3.6686,3.6684,3.6677,3.6602,3.6601,3.6571,3.6531,3.6542,3.6545,3.652,3.6575,3.655,3.6558,3.6556,3.6555,3.6566,3.6575,3.6451,3.645,3.645,0,0,3.694,3.6914,3.6928,3.6901,3.686,3.682,3.6824,3.6771,3.6747,3.6746,3.6687,3.6677,3.6654,3.6625,3.6608,3.6676,3.6631,3.6672,3.6726,3.6729,3.6737,3.6745,3.6763,3.6772,3.6676,3.6676,3.6676,0,3.7006,3.6996,3.694,3.6939,3.6923,3.6854,3.6865,3.6841,3.6797,3.6786,3.676,3.6723,3.6692,3.6691,3.6707,3.6698,3.6695,3.6677,3.6741,3.6748,3.6754,3.6771,3.6778,3.6681,3.6681,3.668,3.668,0,3.7076,3.7069,3.7085,3.7042,3.7028,3.7034,3.6975,3.6967,3.6928,3.689,3.6886,3.6845,3.6815,3.6813,3.6776,3.6805,3.679,3.6754,3.6705,3.677,3.6785,3.6791,3.6688,3.6686,3.6685,3.6684,0,0,3.7221,3.7143,3.7149,3.7126,3.7074,3.7066,3.7066,3.7037,3.7028,3.6999,3.6994,3.6972,3.6936,3.6916,3.6875,3.6878,3.6927,3.684,3.6838,3.6853,3.6948,3.6973,3.6982,3.6898,3.6899,3.69,3.695,0,3.7292,3.7289,3.7235,3.7245,3.7235,3.7167,3.7166,3.7132,3.7095,3.7079,3.7038,3.7022,3.6978,3.6964,3.6965,3.6921,3.6944,3.6917,3.6887,3.6887,3.6896,3.6991,3.7018,3.7068,3.6956,3.6957,3.6958,0,3.7376,3.7349,3.7358,3.7299,3.7293,3.7293,3.7258,3.7245,3.7203,3.7175,3.7151,3.7103,3.7094,3.7051,3.7035,3.7018,3.7002,3.6979,3.6979,3.6971,3.6924,3.6981,3.7083,3.7089,3.6967,3.6966,3.6966,0,3.7473,3.744,3.7438,3.7422,3.7355,3.7356,3.7328,3.7283,3.7267,3.7236,3.7223,3.7192,3.7174,3.7149,3.7092,3.7067,3.708,3.7034,3.7053,3.7055,3.7057,3.7057,3.7154,3.7055,3.7055,3.7055,3.7055,0,3.7556,3.7562,3.748,3.748,3.7483,3.7421,3.7425,3.739,3.735,3.7338,3.7279,3.7268,3.7196,3.7177,3.7133,3.7122,3.7116,3.7091,3.7078,3.7094,3.7096,3.708,3.7074,3.7057,3.7056,3.7056,3.7055,0,3.7664,3.7611,3.7604,3.754,3.7524,3.7529,3.7473,3.7467,3.7426,3.7411,3.7404,3.7339,3.7312,3.7253,3.7212,3.7181,3.718,3.7161,3.7194,3.7186,3.7206,3.7203,3.7293,3.7299,3.7201,3.7202,3.7203,0,3.7718,3.7721,3.7657,3.7645,3.7619,3.7601,3.7582,3.752,3.7503,3.7451,3.7451,3.7419,3.739,3.735,3.7297,3.7262,3.7239,3.7272,3.7233,3.7246,3.7232,3.7231,3.7229,3.728,3.7282,3.7283,3.7284,0,3.7818,3.779,3.7767,3.7733,3.7713,3.7683,3.765,3.7643,3.7571,3.7554,3.7526,3.7503,3.7458,3.7425,3.7382,3.735,3.7303,3.7296,3.7298,3.7312,3.7329,3.7315,3.7213,3.7294,3.7293,3.7292,3.7292,3.7291,3.7897,3.7894,3.7847,3.7821,3.7789,3.7759,3.7748,3.7705,3.768,3.7639,3.7603,3.7576,3.7527,3.7465,3.7435,3.741,3.7388,3.7392,3.7392,3.7393,3.7397,3.7336,3.7403,3.7403,3.7402,3.7402,3.7402,0,3.7989,3.7955,3.7932,3.7886,3.7865,3.7824,3.7783,3.7767,3.7744,3.7704,3.7676,3.764,3.7606,3.755,3.7511,3.7501,3.7478,3.7493,3.7491,3.7483,3.7422,3.7422,3.7512,3.7512,3.7512,3.7512,3.7512,3.7512,3.8034,3.8025,3.7991,3.7963,3.7928,3.7902,3.7881,3.785,3.7817,3.778,3.7752,3.7715,3.7666,3.7622,3.7588,3.7572,3.7558,3.7578,3.7555,3.7499,3.7488,3.7478,3.7478,3.7577,3.7577,3.7616,3.7617,3.7617]}]]